Weather History for KGSO - November, 2011

Change the Weather History Date:

Friday, November 25, 2011

  Actual Average Record
Temperature  
Mean Temperature 51 °F 47 °F  
Max Temperature 68 °F 57 °F 74 °F (1979)
Min Temperature 33 °F 37 °F 10 °F (1970)
Degree Days  
Heating Degree Days 14 18  
Month to date heating degree days 325 352  
Since 1 July heating degree days 565 585  
Cooling Degree Days 0 0  
Month to date cooling degree days 4 0  
Year to date cooling degree days 1798 1480  
Moisture  
Dew Point 28 °F    
Average Humidity 50    
Maximum Humidity 82    
Minimum Humidity 18    
Precipitation  
Precipitation 0.00 in 0.11 in 2.18 in (1957)
Month to date precipitation 5.11 2.60  
Year to date precipitation 38.86 38.71  
Snow  
Snow 0.00 in 0.00 in 0.50 in (1950)
Month to date snowfall 0.0 0.1  
Since 1 July snowfall 0.0 0.1  
Since 1 September snowfall 0.0 0.1  
Snow Depth 0.00 in    
Sea Level Pressure  
Sea Level Pressure 30.30 in    
Wind  
Wind Speed 7 mph (SW)    
Max Wind Speed 17 mph    
Max Gust Speed 22 mph    
Visibility 10 miles    
Events      
T = Trace of Precipitation, MM = Missing Value Source: NWS Daily Summary

Daily Weather History Graph

Daily Weather History Graph

Search for Another Location

Airport or City:

Trip Planner

Search our weather history database for the weather conditions in past years. The results will help you decide how hot, cold, wet, or windy it might be!

Date:

Astronomy

Nov. 25, 2011 Rise Set
Actual Time 7:06 AM EST 5:07 PM EST
Civil Twilight 6:38 AM EST 5:34 PM EST
Nautical Twilight 6:06 AM EST 6:06 PM EST
Astronomical Twilight 5:36 AM EST 6:37 PM EST
Moon 7:30 AM EST (11/25) 5:34 PM EST (11/25)
Length of Visible Light 10h 56m
Length of Day
10h 00m
New Moon, 0% of the Moon is Illuminated
Nov 25
New Moon
Dec 2
First Quarter
Dec 10
Full
Dec 17
Last Quarter
Dec 24
New

Hourly Weather History & Observations

Time (EST) Temp. Windchill Dew Point Humidity Pressure Visibility Wind Dir Wind Speed Gust Speed Precip Events Conditions
12:54 AM 39.9 °F 36.7 °F 32.0 °F 73% 30.33 in 10.0 mi SW 4.6 mph - N/A   Clear
1:54 AM 39.9 °F 37.8 °F 30.9 °F 70% 30.33 in 10.0 mi SW 3.5 mph - N/A   Clear
2:54 AM 37.0 °F 33.3 °F 30.0 °F 76% 30.33 in 10.0 mi WSW 4.6 mph - N/A   Clear
3:54 AM 37.0 °F 33.3 °F 28.9 °F 73% 30.32 in 10.0 mi WSW 4.6 mph - N/A   Clear
4:54 AM 36.0 °F 30.3 °F 28.0 °F 73% 30.32 in 10.0 mi WSW 6.9 mph - N/A   Clear
5:54 AM 36.0 °F 30.3 °F 28.0 °F 73% 30.33 in 10.0 mi SW 6.9 mph - N/A   Clear
6:54 AM 35.1 °F 28.6 °F 28.9 °F 78% 30.35 in 10.0 mi SW 8.1 mph - N/A   Clear
7:54 AM 36.0 °F 29.6 °F 30.9 °F 82% 30.35 in 10.0 mi SW 8.1 mph - N/A   Clear
8:54 AM 45.0 °F 41.8 °F 34.0 °F 65% 30.35 in 10.0 mi WSW 5.8 mph - N/A   Clear
9:54 AM 53.1 °F - 35.1 °F 50% 30.35 in 10.0 mi WSW 9.2 mph - N/A   Clear
10:54 AM 59.0 °F - 32.0 °F 36% 30.34 in 10.0 mi SW 9.2 mph - N/A   Clear
11:54 AM 64.0 °F - 30.9 °F 29% 30.31 in 10.0 mi SW 9.2 mph - N/A   Clear
12:54 PM 66.0 °F - 23.0 °F 20% 30.28 in 10.0 mi West 15.0 mph - N/A   Clear
1:54 PM 66.9 °F - 24.1 °F 20% 30.27 in 10.0 mi WSW 13.8 mph 21.9 mph N/A   Clear
2:54 PM 66.9 °F - 25.0 °F 21% 30.25 in 10.0 mi SW 9.2 mph - N/A   Clear
3:54 PM 66.9 °F - 21.0 °F 17% 30.24 in 10.0 mi SW 11.5 mph - N/A   Clear
4:54 PM 61.0 °F - 23.0 °F 23% 30.25 in 10.0 mi SW 5.8 mph - N/A   Clear
5:54 PM 57.9 °F - 24.1 °F 27% 30.25 in 10.0 mi SW 3.5 mph - N/A   Clear
6:54 PM 55.0 °F - 25.0 °F 31% 30.25 in 10.0 mi SSW 6.9 mph - N/A   Clear
7:54 PM 52.0 °F - 24.1 °F 34% 30.27 in 10.0 mi WSW 4.6 mph - N/A   Clear
8:54 PM 50.0 °F - 25.0 °F 38% 30.27 in 10.0 mi SW 5.8 mph - N/A   Clear
9:54 PM 46.0 °F 43.9 °F 26.1 °F 46% 30.28 in 10.0 mi SSW 4.6 mph - N/A   Clear
10:54 PM 46.0 °F 42.5 °F 27.0 °F 47% 30.28 in 10.0 mi SSW 6.9 mph - N/A   Clear
11:54 PM 44.1 °F 40.8 °F 28.0 °F 53% 30.28 in 10.0 mi SSW 5.8 mph - N/A   Clear